Regional Weather Roundup
Issued by NWS

Home | Current Version | Previous Version | Text Only | Print | Product List | Glossary Off
Versions: 1 2 3 4 5 6 7 8 9 10 11 12 13 14 15 16 17 18 19 20 21 22 23 24 25 26 27 28 29 30 31 32 33 34 35 36 37 38 39 40 41 42 43 44 45 46 47 48 49 50

000
ASUS43 KIND 051309
RWRIN

WEATHER ROUNDUP FOR INDIANA
NATIONAL WEATHER SERVICE INDIANAPOLIS IN
900 AM EDT TUE MAY 05 2015

NOTE: "FAIR" INDICATES FEW OR NO CLOUDS BELOW 12,000 FEET WITH NO
SIGNIFICANT WEATHER AND/OR OBSTRUCTIONS TO VISIBILITY.

* - STATION DOES NOT REPORT WEATHER SUCH AS PRECIPITATION OR FOG.

+ - STATION NOT QUALITY CONTROLLED BY THE NATIONAL WEATHER SERVICE.
    USE DATA WITH CAUTION...ESPECIALLY DEWPOINT AND RELATIVE
    HUMIDITY OBSERVATIONS.

INZ001>003-010>013-019-020-051400-
NORTHWEST INDIANA

CITY           SKY/WX    TMP DP  RH WIND       PRES   REMARKS
GARY /AIRPORT/ LGT RAIN  50 N/A N/A N6        30.22S
KNOX *+        CLOUDY    61  55  82 SE7       30.20F
LA PORTE +     LGT RAIN N/A N/A N/A E3        30.21S VSB 1
MICHIGAN CITY+ DRIZZLE   50  50 100 CALM      30.22S
MONTICELLO +   CLOUDY    61  61  99 E5        30.20S FOG
VALPARAISO     CLOUDY    58  57  97 NE7       30.20F FOG

$$

LMZ046-743>745-051400-
SOUTHERN LAKE MICHIGAN

STATION/POSITION TIME  TEMP    WIND        PRES    WAVE
                       AIR SEA DIR/SP/G            HT
                 (UTC) (F)     (DEG/KT/KT) (MB)    (FT)
BURNS HARBOR     1300   49      40/  9/ 10 1023.4F
MICHIGAN CITY    1300   49      10/  5/  7   N/A
5NW MICH CITY    1300   48 49   60/ 12/ 16   N/A     1

$$

INZ004-005-014>016-021>024-051400-
NORTH CENTRAL INDIANA

CITY           SKY/WX    TMP DP  RH WIND       PRES   REMARKS
ELKHART        RAIN      57  57 100 E5        30.23S
GOSHEN         LGT RAIN  61  60  97 S5        30.24R VSB 1
LOGANSPORT +   CLOUDY    61  59  94 N3        30.22S FOG
PERU/GRISSOM   CLOUDY    63  61  91 CALM      30.21S
ROCHESTER +    CLOUDY    63 N/A N/A CALM      30.24R VSB 1
SOUTH BEND     LGT RAIN  59  58  96 SE5       30.23S FOG
WARSAW +       RAIN      61  61 100 CALM      30.24S VSB 3/4

$$

INZ006>009-017-018-025>027-051400-
NORTHEAST INDIANA

CITY           SKY/WX    TMP DP  RH WIND       PRES   REMARKS
ANGOLA *+      CLOUDY    55  55 100 SE7       30.25S
AUBURN +       RAIN      61  59  94 CALM      30.25R VSB 1
FORT WAYNE     CLOUDY    62  61  96 S6        30.25R FOG
HUNTINGTON +   CLOUDY    62  61  96 CALM      30.23S FOG

$$

INZ028-029-035-036-043>045-051>053-051400-
WEST CENTRAL INDIANA

CITY           SKY/WX    TMP DP  RH WIND       PRES   REMARKS
CRAWFORDSVL +  PTSUNNY   64  52  66 S7        30.21R
GREENCASTLE +  PTSUNNY   66  50  55 S5        30.23S
LAFAYETTE      PTSUNNY   64  60  87 E5        30.20R FOG
TERRE HAUTE    PTSUNNY   65  56  72 S5        30.22R

$$

INZ030>032-037>040-046>048-054>057-064-065-051400-
CENTRAL INDIANA

CITY           SKY/WX    TMP DP  RH WIND       PRES   REMARKS
ANDERSON       MOSUNNY   64  55  72 S6        30.25
CP ATTERBURY + SUNNY     63  61  94 CALM      30.24S
FISHERS *+     PTSUNNY   66  59  77 SW7       30.22S
FRANKFORT +    CLOUDY    62  62 100 CALM      30.23S FOG
GREENWOOD *+   MOSUNNY   68  57  68 SW5       30.24S
INDIANAPOLIS   PTSUNNY   68  56  65 SW8       30.22R
-EAGLE CREEK   PTSUNNY   66  57  72 S6        30.22S
KOKOMO *+      CLOUDY    63  61  94 S7        30.22S
MARION +       CLOUDY    62  59  91 S9        30.24R
MT COMFORT *+  MOSUNNY   66  55  68 S7        30.24S
SHELBYVILLE    MOSUNNY   68  58  70 S8        30.24R
ZIONSVILLE +   CLOUDY    66  57  72 SW7       30.23S

$$

INZ033-034-041-042-049-050-058-059-051400-
EAST CENTRAL INDIANA

CITY           SKY/WX    TMP DP  RH WIND       PRES   REMARKS
MUNCIE         CLOUDY    65  60  84 S5        30.24R

$$

INZ060-061-067>069-081>083-085>088-051400-
SOUTHWEST INDIANA

CITY           SKY/WX    TMP DP  RH WIND       PRES   REMARKS
EVANSVILLE     SUNNY     68  55  63 SW6       30.25R
HUNTINGBURG *+ SUNNY     66  55  68 S7        30.26S
WASHINGTON +   SUNNY     67  52  58 S9        30.23S

$$

INZ062-063-066-070>080-084-089>092-051400-
SOUTH CENTRAL AND SOUTHEAST INDIANA

CITY           SKY/WX    TMP DP  RH WIND       PRES   REMARKS
BEDFORD +      MOSUNNY   66  55  68 S3        30.25S
BLOOMINGTON    MOSUNNY   70  53  54 SW7       30.24R
MADISON *+     SUNNY     66  55  68 CALM      30.29R
NORTH VERNON + SUNNY     68  59  73 S7        30.27R
SEYMOUR +      SUNNY     70  57  64 S5        30.25S

$$




USA.gov is the U.S. government's official web portal to all federal, state and local government web resources and services.